Regional Weather Roundup
Issued by NWS Bismarck, ND

Home | Current Version | Previous Version | Text Only | Print | Product List | Glossary On
Versions: 1 2 3 4 5 6 7 8 9 10 11 12 13 14 15 16 17 18 19 20 21 22 23 24 25 26 27 28 29 30 31 32 33 34 35 36 37 38 39 40 41 42 43 44 45 46 47 48 49 50
000
ASUS43 KBIS 031902
RWRBIS

NWR BROADCAST TEXT
NATIONAL WEATHER SERVICE BISMARCK ND
200 PM CDT TUE MAY 03 2016

NOTE: "FAIR" INDICATES FEW OR NO CLOUDS BELOW 12,000 FEET WITH NO
SIGNIFICANT WEATHER AND/OR OBSTRUCTIONS TO VISIBILITY.


CITY           SKY/WX    TMP DP  RH WIND       PRES   REMARKS
WILLISTON      SUNNY     80  38  22 N15G23    30.05F
MINOT          SUNNY     77  31  18 NW20G28   30.01S
MINOT AFB      SUNNY     72  33  24 N14G31    30.00S
BISMARCK       SUNNY     77  39  25 N20G28    29.97F
DICKINSON      SUNNY     74  35  24 N14G22    30.03F
GARRISON         N/A     74  34  23 N21G26    30.00F
HETTINGER ARPT SUNNY     74  33  22 N15       30.06F
JAMESTOWN      SUNNY     70  29  21 N25G40    29.91F
CARRINGTON     FAIR      68  27  21 N25G38    29.97F
HAZEN          FAIR      75  37  25 N16G22    30.02F
OAKES            N/A    N/A N/A N/A MISG        N/A
STANLEY        FAIR      73  36  25 N13G23    30.06S
$$

CITY           SKY/WX    TMP DP  RH WIND       PRES   REMARKS
GRAND FORKS    MOSUNNY   67  31  26 N24G38    29.88S
GRAND FORKS AF SUNNY     67  28  23 N25G32    29.90S
DEVILS LAKE    SUNNY     66  30  26 NW22G29   29.95F
FARGO          SUNNY     72  28  19 N26G37    29.84S
CAVALIER       FAIR      63  30  29 NW28G37   29.93R
GRAFTON        FAIR      64  32  29 N26G37    29.92S
GWINNER        FAIR      73  36  25 NW21G31   29.86S
LANGDON        FAIR      64  28  25 N22G33    29.95S
$$

CITY           SKY/WX    TMP DP  RH WIND       PRES   REMARKS
ABERDEEN       SUNNY     77  42  28 NW22G29   29.88F
MOBRIDGE       SUNNY     77  39  25 NW20G25   29.94F
BUFFALO          N/A     73  33  23 N14G23    30.02F
RAPID CITY     SUNNY     69  37  30 N20G25    30.09F
GLASGOW        SUNNY     77  39  25 MISG      30.08F
SIDNEY         SUNNY     75  37  25 N9        30.07F
WOLF POINT     SUNNY     78  38  23 E5        30.07F
GLENDIVE       SUNNY     73  36  25 NE7       30.11S
MILES CITY     SUNNY     75  39  27 NW6       30.10F
BAKER          SUNNY     73  31  21 VRB3      30.10F
$$

CITY           SKY/WX    TMP DP  RH WIND       PRES   REMARKS
BILLINGS       MOSUNNY   70  34  26 CALM      30.16F
GREAT FALLS    SUNNY     74  33  22 W3        30.11F
$$




USA.gov is the U.S. government's official web portal to all federal, state and local government web resources and services.